Weather History for Athens, OH

Change the Weather History Date:

Wednesday, October 23, 2013

  Actual Average (KPKB) Record (KPKB)
Temperature  
Mean Temperature 40 °F 53 °F  
Max Temperature 43 °F 64 °F 84 °F (1975)
Min Temperature 36 °F 42 °F 21 °F (1997)
Degree Days  
Heating Degree Days 26 12  
Month to date heating degree days 210  
Since 1 July heating degree days 286  
Cooling Degree Days 0 0  
Month to date cooling degree days 13  
Year to date cooling degree days 949  
Moisture  
Dew Point 35 °F    
Average Humidity 83    
Maximum Humidity 93    
Minimum Humidity 69    
Precipitation  
Precipitation 0.00 in 0.09 in 1.14 in (2007)
Month to date precipitation 2.08  
Year to date precipitation 33.95  
Sea Level Pressure  
Sea Level Pressure 29.88 in    
Wind  
Wind Speed 4 mph (NNW)    
Max Wind Speed 12 mph    
Max Gust Speed 18 mph    
Visibility 10 miles    
Events Rain    
T = Trace of Precipitation, MM = Missing Value Source: NWS Daily Summary

Daily Weather History Graph

Daily Weather History Graph

Search for Another Location

Airport:

Trip Planner

Search our weather history database for the weather conditions in past years. The results will help you decide how hot, cold, wet, or windy it might be!

Date:

Astronomy

Oct. 23, 2013 Rise Set
Actual Time 7:47 AM EDT 6:38 PM EDT
Civil Twilight 7:19 AM EDT 7:05 PM EDT
Nautical Twilight 6:48 AM EDT 7:37 PM EDT
Astronomical Twilight 6:17 AM EDT 8:08 PM EDT
Moon 10:09 PM EDT (10/23) 12:02 PM EDT (10/23)
Length of Visible Light 11h 46m
Length of Day
10h 51m
Waning Gibbous, 79% of the Moon is Illuminated
Oct 23
Waning Gibbous
Oct 26
Last Quarter
Nov 3
New
Nov 10
First Quarter
Nov 17
Full

Hourly Weather History & Observations

Time (EDT) Temp. Windchill Dew Point Humidity Pressure Visibility Wind Dir Wind Speed Gust Speed Precip Events Conditions
12:15 AM 43.7 °F - 37.2 °F 78% 29.86 in 10.0 mi Calm Calm - N/A   Overcast
12:35 AM 43.7 °F 42.1 °F 37.6 °F 79% 29.84 in 10.0 mi ENE 3.5 mph - N/A   Overcast
12:55 AM 43.5 °F 41.9 °F 37.4 °F 79% 29.84 in 10.0 mi NE 3.5 mph - N/A   Overcast
1:15 AM 43.7 °F - 36.1 °F 75% 29.84 in 10.0 mi Calm Calm - N/A   Overcast
1:35 AM 43.7 °F - 35.2 °F 72% 29.84 in 10.0 mi Calm Calm - N/A   Overcast
1:55 AM 43.7 °F 42.1 °F 34.5 °F 70% 29.84 in 10.0 mi North 3.5 mph - N/A   Overcast
2:15 AM 43.2 °F 41.5 °F 34.3 °F 71% 29.84 in 10.0 mi North 3.5 mph - N/A   Overcast
2:35 AM 42.8 °F - 34.7 °F 73% 29.83 in 10.0 mi Calm Calm - N/A   Overcast
2:55 AM 42.4 °F 39.6 °F 35.6 °F 77% 29.82 in 10.0 mi NE 4.6 mph - N/A   Overcast
3:15 AM 42.3 °F - 35.6 °F 77% 29.82 in 10.0 mi Calm Calm - N/A   Overcast
3:35 AM 41.9 °F 36.9 °F 36.0 °F 79% 29.80 in 10.0 mi NNE 8.1 mph - N/A   Overcast
3:55 AM 41.5 °F 39.6 °F 36.0 °F 81% 29.79 in 10.0 mi NE 3.5 mph - N/A   Overcast
4:15 AM 41.5 °F 38.6 °F 36.1 °F 81% 29.79 in 10.0 mi East 4.6 mph - N/A   Overcast
4:35 AM 41.4 °F 37.6 °F 36.3 °F 82% 29.78 in 10.0 mi ENE 5.8 mph - N/A   Overcast
4:55 AM 41.4 °F 36.2 °F 36.3 °F 82% 29.77 in 10.0 mi ENE 8.1 mph - N/A   Overcast
5:15 AM 41.2 °F 36.6 °F 36.1 °F 82% 29.77 in 10.0 mi NE 6.9 mph - N/A   Overcast
5:35 AM 41.0 °F 36.4 °F 36.7 °F 85% 29.76 in 10.0 mi NE 6.9 mph - N/A Rain Light Rain
5:55 AM 40.5 °F 36.5 °F 37.4 °F 89% 29.76 in 10.0 mi NE 5.8 mph - N/A Rain Light Rain
6:15 AM 40.3 °F 38.2 °F 37.4 °F 89% 29.76 in 10.0 mi NNE 3.5 mph - N/A Rain Light Rain
6:35 AM 40.1 °F 36.1 °F 37.4 °F 90% 29.76 in 10.0 mi North 5.8 mph - N/A Rain Rain
6:55 AM 39.7 °F 35.6 °F 37.4 °F 91% 29.75 in 10.0 mi NE 5.8 mph - N/A Rain Light Rain
7:15 AM 39.6 °F 34.0 °F 37.6 °F 93% 29.75 in 10.0 mi NE 8.1 mph - N/A Rain Light Rain
7:35 AM 39.6 °F - 37.6 °F 93% 29.76 in 10.0 mi Calm Calm - N/A Rain Rain
7:55 AM 39.6 °F - 37.8 °F 93% 29.77 in 7.0 mi Calm Calm - N/A Rain Rain
8:15 AM 39.4 °F 36.1 °F 37.6 °F 93% 29.77 in 7.0 mi NNE 4.6 mph - N/A Rain Rain
8:35 AM 39.2 °F 35.9 °F 37.4 °F 93% 29.78 in 10.0 mi North 4.6 mph - N/A Rain Light Rain
8:55 AM 39.2 °F 35.0 °F 37.4 °F 93% 29.79 in 7.0 mi North 5.8 mph - N/A Rain Rain
9:15 AM 37.8 °F 32.5 °F 35.6 °F 92% 29.79 in 10.0 mi North 6.9 mph - N/A Rain Light Rain
9:35 AM 37.2 °F 31.2 °F 34.7 °F 91% 29.80 in 10.0 mi North 8.1 mph - N/A Rain Light Rain
9:55 AM 36.7 °F 32.0 °F 34.5 °F 92% 29.81 in 10.0 mi North 5.8 mph - N/A   Overcast
10:15 AM 36.5 °F 31.0 °F 34.3 °F 92% 29.82 in 10.0 mi North 6.9 mph - N/A   Overcast
10:35 AM 36.5 °F 31.0 °F 34.3 °F 92% 29.82 in 10.0 mi North 6.9 mph - N/A   Overcast
10:55 AM 36.9 °F 31.4 °F 34.9 °F 93% 29.82 in 10.0 mi North 6.9 mph - N/A   Overcast
11:15 AM 36.9 °F 32.2 °F 34.7 °F 92% 29.82 in 10.0 mi North 5.8 mph - N/A Rain Light Rain
11:35 AM 37.4 °F 32.8 °F 35.1 °F 91% 29.84 in 10.0 mi NNW 5.8 mph - N/A   Light Drizzle
11:55 AM 37.6 °F 34.0 °F 35.2 °F 91% 29.85 in 10.0 mi NNW 4.6 mph - N/A   Overcast
12:15 PM 38.3 °F 32.5 °F 35.6 °F 90% 29.85 in 10.0 mi NW 8.1 mph - N/A   Overcast
12:35 PM 38.5 °F 34.1 °F 35.8 °F 90% 29.86 in 10.0 mi NW 5.8 mph - N/A   Overcast
12:55 PM 38.3 °F 33.2 °F 35.6 °F 90% 29.86 in 10.0 mi NW 6.9 mph - N/A   Overcast
1:15 PM 38.7 °F 32.9 °F 35.8 °F 89% 29.87 in 10.0 mi WNW 8.1 mph - N/A   Overcast
1:35 PM 39.4 °F 33.8 °F 36.3 °F 89% 29.87 in 10.0 mi WNW 8.1 mph - N/A   Overcast
1:55 PM 40.6 °F 35.4 °F 36.5 °F 85% 29.87 in 10.0 mi NW 8.1 mph - N/A   Overcast
2:15 PM 41.4 °F 36.2 °F 36.7 °F 83% 29.87 in 10.0 mi WNW 8.1 mph - N/A   Overcast
2:35 PM 41.4 °F 36.2 °F 36.5 °F 83% 29.88 in 10.0 mi WNW 8.1 mph - N/A   Light Drizzle
2:55 PM 41.7 °F 36.7 °F 37.6 °F 85% 29.89 in 10.0 mi WNW 8.1 mph - N/A Rain Light Rain
3:15 PM 41.4 °F 36.2 °F 37.0 °F 85% 29.90 in 10.0 mi WNW 8.1 mph - N/A Rain Light Rain
3:35 PM 41.5 °F 36.4 °F 36.7 °F 83% 29.90 in 10.0 mi WNW 8.1 mph - N/A Rain Light Rain
3:55 PM 41.2 °F 36.0 °F 36.3 °F 83% 29.91 in 7.0 mi WNW 8.1 mph - N/A Rain Light Rain
4:15 PM 41.9 °F 36.9 °F 36.5 °F 81% 29.92 in 10.0 mi West 8.1 mph - N/A   Overcast
4:35 PM 42.4 °F 38.1 °F 36.7 °F 80% 29.92 in 10.0 mi West 6.9 mph - N/A   Overcast
4:55 PM 42.8 °F 37.0 °F 34.7 °F 73% 29.93 in 10.0 mi West 10.4 mph 18.4 mph N/A   Overcast
5:15 PM 42.8 °F 37.5 °F 34.0 °F 71% 29.94 in 10.0 mi West 9.2 mph - N/A   Overcast
5:35 PM 42.8 °F 37.0 °F 33.6 °F 70% 29.95 in 10.0 mi WNW 10.4 mph 17.3 mph N/A   Overcast
5:55 PM 43.2 °F 37.0 °F 33.4 °F 69% 29.95 in 10.0 mi West 11.5 mph 17.3 mph N/A   Overcast
6:15 PM 41.7 °F 35.2 °F 32.9 °F 71% 29.96 in 10.0 mi West 11.5 mph - N/A   Scattered Clouds
6:35 PM 41.2 °F 36.6 °F 32.4 °F 71% 29.97 in 10.0 mi West 6.9 mph - N/A   Mostly Cloudy
6:55 PM 40.1 °F 36.9 °F 33.1 °F 76% 29.97 in 10.0 mi WSW 4.6 mph - N/A   Mostly Cloudy
7:15 PM 39.2 °F 34.2 °F 32.9 °F 78% 29.98 in 10.0 mi WSW 6.9 mph - N/A   Overcast
7:35 PM 39.7 °F 34.9 °F 32.4 °F 75% 29.99 in 10.0 mi SW 6.9 mph - N/A   Mostly Cloudy
7:55 PM 38.8 °F 33.2 °F 32.4 °F 78% 29.99 in 10.0 mi WSW 8.1 mph - N/A   Mostly Cloudy
8:15 PM 39.2 °F 35.0 °F 33.1 °F 79% 30.00 in 10.0 mi WSW 5.8 mph - N/A   Overcast
8:35 PM 39.9 °F 35.1 °F 33.1 °F 77% 30.01 in 10.0 mi NW 6.9 mph - N/A Rain Light Rain
8:55 PM 38.7 °F 35.2 °F 32.7 °F 79% 30.01 in 10.0 mi WNW 4.6 mph - N/A   Overcast
9:15 PM 37.8 °F 34.2 °F 33.1 °F 83% 30.01 in 10.0 mi SW 4.6 mph - N/A   Mostly Cloudy
9:35 PM 37.9 °F 34.4 °F 33.3 °F 83% 30.01 in 10.0 mi West 4.6 mph - N/A   Mostly Cloudy
9:55 PM 37.8 °F - 34.2 °F 87% 30.01 in 10.0 mi Calm Calm - N/A   Overcast
10:15 PM 38.1 °F - 34.2 °F 86% 30.02 in 10.0 mi Calm Calm - N/A   Overcast
10:35 PM 37.9 °F - 34.2 °F 86% 30.02 in 10.0 mi Calm Calm - N/A   Overcast
10:55 PM 37.6 °F - 34.2 °F 87% 30.02 in 10.0 mi Calm Calm - N/A   Overcast
11:15 PM 37.2 °F - 34.2 °F 89% 30.02 in 10.0 mi Calm Calm - N/A   Mostly Cloudy
11:35 PM 36.1 °F - 33.4 °F 90% 30.02 in 10.0 mi Calm Calm - N/A   Scattered Clouds
11:55 PM 36.5 °F 33.9 °F 33.8 °F 90% 30.02 in 10.0 mi West 3.5 mph - N/A   Mostly Cloudy